Location: Long Island Community Building
(39.9491°N, 99.5338°W)
Time: 01:14:51
(UTC+00:00)

Feng Yun 1-1 Rocket - Pass Details

Date: 06 December 2019
Orbit: 830 x 933 km, 99.2° (Epoch: 27 January)

Event Time Altitude Azimuth Distance (km) Brightness Sun altitude
Rises 23:37:14 0° 150° (SSE) 3,384 7.3 -5.0°
Reaches altitude 10° 23:39:39 10° 146° (SE) 2,444 6.5 -5.4°
Maximum altitude 23:44:52 53° 71° (ENE) 1,017 4.3 -6.3°
Drops below altitude 10° 23:50:06 10° 356° (N) 2,445 6.4 -7.2°
Sets 23:52:30 0° 351° (N) 3,385 7.2 -7.6°
